Find Starlink 34675

NORAD ID: 64809 Int'l Des: 2025-150 Owner: SPXS Country: US Constellation: starlink operational
LEOCIRCULAR

Current View

Loading 3D Globe...

About Starlink 34675

Starlink 34675 (NORAD 64809) is a starlink constellation satellite (v2 mini) launched Jul 16, 2025 by SPXS of US. It operates in LEO, CIRCULAR orbit with a mass of 575.00 kg.

Upcoming Passes

Passes for default location (London). Set your location on the main map for personalized predictions.

Altitude History

Loading altitude history...

Two-Line Element Set

1 64809U 25150V 26236.83457320 .00004801 00000-0 40983-3 0 9991
2 64809 70.0010 70.4909 0002429 270.2146 89.8734 14.98335127 61701
Epoch: Aug 24, 2026 • Age: 10 hours

Current Status

Altitude 584.4 km
Apogee / Perigee N/A
Velocity 7.57 km/s
Sub-Earth Point 65.90°N, 130.32°E
Launch Date Jul 16, 2025
Age 1.1 years
Type internet

Technical Details

Classification Payload
Mass 575.00 kg
Dry Mass 530.00 kg
Total Mass 575.00 kg
Length 0.30 m
Diameter 4.10 m
Span 29.00 m
Shape Box + pan
Manufacturer SPXS
Bus Type Starlink V2MO
Phase Status In Orbit
Owner/State SPXS/US

Most Searched